EN

Hourly Weather Tyrgowishte

Today, 29 November, Sunday

Time Temperature Precipitation Wind Pressure Humidity
00:00 +6°C° 0 mm 0 mps 745 mmHg 48%
01:00 +6°C° 0 mm 0 mps 745 mmHg 49%
02:00 +5°C° 0 mm 0 mps 744 mmHg 49%
03:00 +5°C° 0 mm 0 mps 744 mmHg 50%
04:00 +5°C° 0 mm 0 mps 744 mmHg 50%
05:00 +5°C° 0 mm 0 mps 744 mmHg 51%
06:00 +5°C° 0 mm 0 mps 745 mmHg 52%
07:00 +5°C° 0 mm 0 mps 745 mmHg 53%
08:00 +5°C° 0 mm 0 mps 745 mmHg 53%
09:00 +6°C° 0 mm 0 mps 745 mmHg 50%
10:00 +8°C° 0 mm 0 mps 745 mmHg 46%
11:00 +9°C° 0 mm 0 mps 746 mmHg 43%
12:00 +11°C° 0 mm 1 mps 745 mmHg 43%
13:00 +11°C° 0 mm 1 mps 745 mmHg 43%
14:00 +12°C° 0 mm 1 mps 745 mmHg 43%
15:00 +11°C° 0 mm 1 mps 745 mmHg 48%
16:00 +10°C° 0 mm 1 mps 745 mmHg 52%
17:00 +9°C° 0 mm 1 mps 744 mmHg 56%
18:00 +8°C° 0 mm 1 mps 745 mmHg 58%
19:00 +8°C° 0 mm 1 mps 745 mmHg 60%
20:00 +8°C° 0 mm 1 mps 745 mmHg 62%
21:00 +8°C° 0 mm 1 mps 745 mmHg 63%
22:00 +8°C° 0 mm 1 mps 745 mmHg 64%
23:00 +8°C° 0 mm 1 mps 745 mmHg 65%

Tomorrow, 30 November, Monday

Time Temperature Precipitation Wind Pressure Humidity
00:00 +8°C° 0 mm 1 mps 745 mmHg 67%
01:00 +7°C° 0 mm 1 mps 745 mmHg 69%
02:00 +7°C° 0 mm 1 mps 745 mmHg 71%
03:00 +7°C° 0.1 mm 1 mps 745 mmHg 72%
04:00 +6°C° 0.1 mm 2 mps 745 mmHg 74%
05:00 +5°C° 0.1 mm 2 mps 745 mmHg 76%
06:00 +5°C° 0.8 mm 2 mps 745 mmHg 80%
07:00 +4°C° 0.8 mm 2 mps 745 mmHg 85%
08:00 +4°C° 0.8 mm 2 mps 746 mmHg 89%
09:00 +3°C° 1.4 mm 2 mps 746 mmHg 91%
10:00 +3°C° 1.4 mm 2 mps 746 mmHg 94%
11:00 +1°C° 1.4 mm 3 mps 746 mmHg 96%
12:00 +1°C° 1.5 mm 3 mps 747 mmHg 96%
13:00 +1°C° 1.5 mm 3 mps 747 mmHg 97%
14:00 0°C° 1.5 mm 3 mps 747 mmHg 98%
15:00 0°C° 1.1 mm 3 mps 747 mmHg 98%
16:00 0°C° 1.1 mm 3 mps 747 mmHg 98%
17:00 0°C° 1.1 mm 3 mps 748 mmHg 98%
18:00 -1°C° 0.4 mm 4 mps 748 mmHg 98%
19:00 -1°C° 0.4 mm 4 mps 748 mmHg 98%
20:00 -1°C° 0.4 mm 4 mps 749 mmHg 97%
21:00 -1°C° 0.2 mm 4 mps 749 mmHg 97%
22:00 -1°C° 0.2 mm 5 mps 749 mmHg 97%
23:00 -1°C° 0.2 mm 5 mps 749 mmHg 97%

Day after tomorrow, 1 December, Tuesday

Time Temperature Precipitation Wind Pressure Humidity
00:00 -1°C° 0.1 mm 4 mps 749 mmHg 96%
01:00 -1°C° 0.1 mm 4 mps 749 mmHg 94%
02:00 -2°C° 0.1 mm 4 mps 750 mmHg 93%
03:00 -1°C° 0 mm 3 mps 749 mmHg 93%
04:00 -1°C° 0 mm 3 mps 749 mmHg 92%
05:00 -2°C° 0 mm 3 mps 749 mmHg 92%
06:00 -2°C° 0 mm 3 mps 750 mmHg 91%
07:00 -2°C° 0 mm 2 mps 750 mmHg 90%
08:00 -3°C° 0 mm 2 mps 750 mmHg 89%
09:00 -2°C° 0 mm 3 mps 750 mmHg 86%
10:00 -1°C° 0 mm 3 mps 750 mmHg 83%
11:00 0°C° 0 mm 3 mps 750 mmHg 80%
12:00 0°C° 0 mm 3 mps 749 mmHg 79%
13:00 0°C° 0 mm 3 mps 749 mmHg 78%
14:00 0°C° 0 mm 3 mps 749 mmHg 77%
15:00 +1°C° 0 mm 2 mps 749 mmHg 79%
16:00 -1°C° 0 mm 2 mps 749 mmHg 80%
17:00 +1°C° 0 mm 1 mps 748 mmHg 82%
18:00 0°C° 0 mm 1 mps 749 mmHg 82%
19:00 0°C° 0 mm 1 mps 749 mmHg 82%
20:00 0°C° 0 mm 1 mps 749 mmHg 82%
21:00 0°C° 0 mm 1 mps 749 mmHg 83%
22:00 -1°C° 0 mm 1 mps 749 mmHg 84%
23:00 -1°C° 0 mm 1 mps 749 mmHg 85%

2 December, Wednesday

Time Temperature Precipitation Wind Pressure Humidity
00:00 -1°C° 0 mm 1 mps 748 mmHg 86%
01:00 -1°C° 0 mm 1 mps 748 mmHg 87%
02:00 -2°C° 0 mm 1 mps 748 mmHg 88%
03:00 -2°C° 0 mm 0 mps 748 mmHg 89%
04:00 -2°C° 0 mm 0 mps 748 mmHg 89%
05:00 -2°C° 0 mm 0 mps 748 mmHg 90%
06:00 -1°C° 0 mm 0 mps 748 mmHg 90%
07:00 -1°C° 0 mm 0 mps 748 mmHg 91%
08:00 0°C° 0 mm 0 mps 748 mmHg 91%
09:00 0°C° 0 mm 0 mps 748 mmHg 91%
10:00 +2°C° 0 mm 1 mps 748 mmHg 91%
11:00 +3°C° 0 mm 1 mps 749 mmHg 91%
12:00 +3°C° 0 mm 1 mps 748 mmHg 90%
13:00 +4°C° 0 mm 1 mps 748 mmHg 90%
14:00 +4°C° 0 mm 1 mps 748 mmHg 89%
15:00 +4°C° 0 mm 1 mps 748 mmHg 90%
16:00 +4°C° 0 mm 1 mps 748 mmHg 91%
17:00 +4°C° 0 mm 1 mps 748 mmHg 92%
18:00 +3°C° 0 mm 1 mps 748 mmHg 93%
19:00 +3°C° 0 mm 1 mps 748 mmHg 93%
20:00 +2°C° 0 mm 1 mps 748 mmHg 94%
21:00 +2°C° 0 mm 1 mps 748 mmHg 94%
22:00 +2°C° 0 mm 1 mps 748 mmHg 94%
23:00 +2°C° 0 mm 1 mps 748 mmHg 94%

3 December, Thursday

Time Temperature Precipitation Wind Pressure Humidity
00:00 +2°C° 0 mm 1 mps 748 mmHg 94%
01:00 +2°C° 0 mm 1 mps 748 mmHg 94%
02:00 +2°C° 0 mm 1 mps 748 mmHg 95%
03:00 +2°C° 0 mm 1 mps 748 mmHg 95%
04:00 +2°C° 0 mm 1 mps 748 mmHg 95%
05:00 +2°C° 0 mm 1 mps 748 mmHg 95%
06:00 +3°C° 0 mm 1 mps 748 mmHg 95%
07:00 +3°C° 0 mm 1 mps 748 mmHg 95%
08:00 +3°C° 0 mm 1 mps 748 mmHg 95%
09:00 +4°C° 0 mm 1 mps 748 mmHg 94%
10:00 +5°C° 0 mm 1 mps 748 mmHg 93%
11:00 +7°C° 0 mm 1 mps 748 mmHg 92%
12:00 +7°C° 0 mm 1 mps 748 mmHg 92%
13:00 +7°C° 0 mm 1 mps 747 mmHg 92%
14:00 +7°C° 0 mm 2 mps 747 mmHg 92%
15:00 +6°C° 0 mm 2 mps 746 mmHg 93%
16:00 +6°C° 0 mm 2 mps 746 mmHg 94%
17:00 +6°C° 0 mm 2 mps 746 mmHg 95%
18:00 +6°C° 0 mm 2 mps 746 mmHg 96%
19:00 +6°C° 0 mm 2 mps 746 mmHg 97%
20:00 +6°C° 0 mm 2 mps 745 mmHg 98%
21:00 +6°C° 0 mm 2 mps 745 mmHg 98%
22:00 +6°C° 0 mm 2 mps 745 mmHg 98%
23:00 +6°C° 0 mm 2 mps 745 mmHg 98%

4 December, Friday

Time Temperature Precipitation Wind Pressure Humidity
00:00 +6°C° 0 mm 2 mps 744 mmHg 98%
01:00 +5°C° 0 mm 3 mps 744 mmHg 98%
02:00 +7°C° 0 mm 3 mps 743 mmHg 98%
03:00 +7°C° 0 mm 3 mps 743 mmHg 98%
04:00 +7°C° 0 mm 3 mps 743 mmHg 98%
05:00 +7°C° 0 mm 3 mps 742 mmHg 97%
06:00 +6°C° 0 mm 4 mps 742 mmHg 97%
07:00 +7°C° 0 mm 4 mps 742 mmHg 97%
08:00 +7°C° 0 mm 4 mps 741 mmHg 96%
09:00 +8°C° 0 mm 5 mps 741 mmHg 93%
10:00 +9°C° 0 mm 6 mps 741 mmHg 89%
11:00 +10°C° 0 mm 7 mps 740 mmHg 86%
12:00 +10°C° 0 mm 7 mps 740 mmHg 84%
13:00 +10°C° 0 mm 6 mps 739 mmHg 82%
14:00 +11°C° 0 mm 6 mps 739 mmHg 81%
15:00 +10°C° 0 mm 6 mps 738 mmHg 83%
16:00 +10°C° 0 mm 6 mps 738 mmHg 85%
17:00 +9°C° 0 mm 6 mps 737 mmHg 87%
18:00 +9°C° 0.3 mm 5 mps 737 mmHg 87%
19:00 +9°C° 0.3 mm 5 mps 737 mmHg 87%
20:00 +9°C° 0.3 mm 5 mps 737 mmHg 86%
21:00 +10°C° 1 mm 4 mps 737 mmHg 89%
22:00 +10°C° 1 mm 4 mps 737 mmHg 91%
23:00 +10°C° 1 mm 4 mps 736 mmHg 93%
Show more